This demonstration page uses our WeatherBlox Daily Observations layout. Learn more.

Left ArrowRight Arrow

39.92423, -83.80882

Hourly Observations for November 27, 2018

Temp ( °F °C ) Dew Point ( °F °C ) Humidity (%) Winds ( mph kmh ) Pressure ( in mb ) Visibility ( mi km ) Precip ( " mm )
12:31 am 00:31 Cloudy with Light Snow 28 -2 25 -4 86 86 WNW 18 30 29.94 1014 9 14 N/A
12:56 am 00:56 Cloudy with Light Snow 28 -2.2 24 -4.4 85 85 W 18 30 29.90 1013 9 14 N/A
1:56 am 01:56 Cloudy with Light Snow 27 -2.8 24 -4.4 89 89 W 15 24 29.91 1013 9 14 N/A
2:56 am 02:56 Cloudy with Light Snow 27 -2.8 24 -4.4 89 89 W 17 28 29.92 1013 9 14 N/A
3:56 am 03:56 Cloudy with Light Snow 27 -2.8 24 -4.4 89 89 W 15 24 29.91 1013 9 14 0.01 0.25
4:56 am 04:56 Cloudy with Light Snow 26 -3.3 24 -4.4 92 92 W 16 26 29.91 1013 9 14 N/A
5:56 am 05:56 Cloudy with Light Snow 26 -3.3 24 -4.4 92 92 W 14 22 29.91 1013 9 14 N/A
6:56 am 06:56 Cloudy with Light Snow 26 -3.3 24 -4.4 92 92 W 15 24 29.92 1013 9 14 N/A
7:30 am 07:30 Cloudy with Light Snow 27 -3 25 -4 93 93 W 16 26 29.94 1014 9 14 N/A
7:56 am 07:56 Cloudy with Light Snow 26 -3.3 24 -4.4 92 92 W 15 24 29.93 1014 9 14 N/A
8:35 am 08:35 Cloudy with Light Snow 27 -3 25 -4 93 93 W 15 24 29.97 1015 9 14 N/A
8:56 am 08:56 Cloudy with Light Snow 26 -3.3 24 -4.4 92 92 W 16 26 29.94 1014 5 8 N/A
9:56 am 09:56 Cloudy with Light Snow 25 -3.9 23 -5 92 92 W 16 26 29.95 1014 7 11 N/A
10:56 am 10:56 Cloudy with Light Snow 25 -3.9 23 -5 92 92 W 13 20 29.94 1014 6 10 N/A
11:56 am 11:56 Cloudy with Light Snow 25 -3.9 23 -5 92 92 W 12 19 29.93 1013 9 14 N/A
12:56 pm 12:56 Cloudy with Light Snow 25 -3.9 22 -5.6 88 88 W 14 22 29.91 1013 9 14 N/A
1:56 pm 13:56 Cloudy with Light Snow 25 -3.9 22 -5.6 88 88 W 14 22 29.91 1013 9 14 N/A
2:56 pm 14:56 Cloudy with Light Snow 25 -3.9 22 -5.6 88 88 W 14 22 29.91 1013 9 14 N/A
3:56 pm 15:56 Cloudy with Light Snow 25 -3.9 22 -5.6 88 88 W 16 26 29.93 1013 4 6 N/A
4:10 pm 16:10 Cloudy with Light Snow 25 -4 21 -6 86 86 W 12 19 29.94 1014 3 5 N/A
4:40 pm 16:40 Cloudy with Light Snow 25 -4 21 -6 86 86 W 13 20 29.97 1015 3 5 N/A
4:56 pm 16:56 Cloudy with Light Snow 24 -4.4 21 -6.1 88 88 W 16 26 29.94 1014 4 6 N/A
5:25 pm 17:25 Cloudy with Light Snow 23 -5 21 -6 93 93 W 14 22 30.00 1016 5 8 N/A
5:56 pm 17:56 Cloudy with Light Snow 23 -5 21 -6.1 92 92 W 14 22 29.96 1015 7 11 N/A
6:11 pm 18:11 Cloudy with Light Snow 23 -5 21 -6 93 93 W 13 20 30.00 1016 8 13 N/A
6:56 pm 18:56 Cloudy with Light Snow 23 -5 20 -6.7 88 88 W 16 26 29.97 1015 9 14 N/A
7:56 pm 19:56 Cloudy with Light Snow 22 -5.6 19 -7.2 89 89 W 18 30 29.99 1016 8 13 N/A
8:56 pm 20:56 Cloudy with Light Snow 22 -5.6 19 -7.2 89 89 W 15 24 29.99 1016 9 14 N/A
9:56 pm 21:56 Cloudy with Light Snow 22 -5.6 19 -7.2 89 89 W 13 20 29.99 1016 9 14 N/A
10:56 pm 22:56 Cloudy with Light Snow 22 -5.6 19 -7.2 89 89 W 13 20 30.00 1016 9 14 N/A
11:56 pm 23:56 Cloudy with Light Snow 22 -5.6 18 -7.8 85 85 W 14 22 30.00 1016 9 14 N/A

Powered by AerisWeather